User: anonymous   Login
Location: G�yn�k
(36.6721°N, 30.5542°E)
Time: 11:36:43
(UTC+00:00)
Language:

ADEOS II - Orbit

View from above orbital plane
View from above orbital plane
View from above satellite
View from above satellite

Ground track
Ground track

The orbit data is extracted from the following two-line orbital elements,

1 27597U 02056A   20226.87450218 +.00000006 +00000-0 +19838-4 0  9999
2 27597 098.5228 173.0278 0001403 124.4914 235.6400 14.27455645920001
Epoch (UTC): 13 August 2020 20:59:16
Eccentricity: 0.0001403
inclination: 98.5228°
perigee height: 799 km
apogee height: 801 km
right ascension of ascending node: 173.0278°
argument of perigee: 124.4914°
revolutions per day: 14.27455645
mean anomaly at epoch: 235.6400°
orbit number at epoch: 92000

The dashed part of the orbit path shows where the satellite is in the earth's shadow,  

DLR